TimeEDT,TemperatureF,Dew PointF,Humidity,Sea Level PressureIn,VisibilityMPH,Wind Direction,Wind SpeedMPH,Gust SpeedMPH,PrecipitationIn,Events,Conditions,WindDirDegrees,DateUTC
12:53 AM,33.1,14.0,46,29.90,10.0,West,10.4,-,N/A,,Clear,270,2013-04-02 04:53:00
1:53 AM,33.1,15.1,48,29.91,10.0,West,9.2,-,N/A,,Clear,260,2013-04-02 05:53:00
2:53 AM,30.9,15.1,52,29.90,10.0,WSW,4.6,-,N/A,,Clear,250,2013-04-02 06:53:00
3:53 AM,30.9,16.0,54,29.90,10.0,WSW,6.9,-,N/A,,Clear,250,2013-04-02 07:53:00
4:53 AM,30.0,16.0,56,29.91,10.0,WSW,8.1,-,N/A,,Clear,240,2013-04-02 08:53:00
5:53 AM,30.0,15.1,54,29.92,10.0,WSW,9.2,-,N/A,,Clear,250,2013-04-02 09:53:00
6:53 AM,30.0,16.0,56,29.94,10.0,WSW,10.4,-,N/A,,Clear,250,2013-04-02 10:53:00
7:53 AM,30.9,17.1,57,29.96,10.0,West,11.5,-,N/A,,Clear,260,2013-04-02 11:53:00
8:53 AM,33.1,14.0,46,29.97,10.0,West,12.7,-,N/A,,Clear,270,2013-04-02 12:53:00
9:53 AM,35.1,10.9,37,29.97,10.0,West,19.6,26.5,N/A,,Scattered Clouds,280,2013-04-02 13:53:00
10:53 AM,35.1,10.0,35,29.98,10.0,West,11.5,25.3,N/A,,Mostly Cloudy,280,2013-04-02 14:53:00
11:53 AM,39.0,9.0,29,29.96,10.0,West,21.9,29.9,N/A,,Mostly Cloudy,260,2013-04-02 15:53:00
12:53 PM,37.9,8.1,29,29.95,10.0,WNW,16.1,25.3,N/A,,Scattered Clouds,290,2013-04-02 16:53:00
1:53 PM,39.0,7.0,27,29.94,10.0,West,12.7,31.1,N/A,,Mostly Cloudy,270,2013-04-02 17:53:00
2:53 PM,41.0,9.0,27,29.93,10.0,West,15.0,31.1,N/A,,Mostly Cloudy,280,2013-04-02 18:53:00
3:53 PM,41.0,8.1,26,29.92,10.0,West,20.7,31.1,N/A,,Mostly Cloudy,270,2013-04-02 19:53:00
4:53 PM,42.1,10.0,27,29.93,10.0,West,18.4,25.3,N/A,,Mostly Cloudy,270,2013-04-02 20:53:00
5:53 PM,39.9,9.0,28,29.95,10.0,West,18.4,25.3,N/A,,Scattered Clouds,280,2013-04-02 21:53:00
6:53 PM,39.0,9.0,29,29.97,10.0,West,12.7,25.3,N/A,,Mostly Cloudy,280,2013-04-02 22:53:00
7:53 PM,37.0,10.0,33,29.99,10.0,WNW,9.2,17.3,N/A,,Partly Cloudy,290,2013-04-02 23:53:00
8:53 PM,36.0,10.0,34,30.02,10.0,WNW,6.9,-,N/A,,Clear,300,2013-04-03 00:53:00
9:53 PM,35.1,9.0,34,30.04,10.0,WNW,6.9,-,N/A,,Clear,290,2013-04-03 01:53:00
10:53 PM,35.1,9.0,34,30.04,10.0,West,17.3,21.9,N/A,,Partly Cloudy,280,2013-04-03 02:53:00
11:53 PM,34.0,10.0,37,30.05,10.0,West,10.4,-,N/A,,Mostly Cloudy,270,2013-04-03 03:53:00